Погода в Кабале

Погода в Кабале : погода сейчас, прогноз погоды и архив. Всё, что Вы хотите узнать о погоде в Кабале!

Поиск расширенной информации на нашем сайте:

Другие новости

Новости СМИ2

Главная страница сайта

Новости сайта

03.07.2017

Напоминаем, что на нашем специализированном сайте Метеоцентр.Азия вы можете получить высокодетализированные автоматические прогнозы погоды по пунктам России, СНГ и мира в авиационном формате (включающие направление и скорость ветра, видимость, явления погоды, количество и форму облачности, нижнюю и верхнюю границу облачности).


Погода в Кабале - сегодня

Время (UTC), дата Ветер
(°,м/с) 
Видим.   Явления Облачность Т
(°С)
Тd
(°С)
f(%) Тe
(°С)
Pmin
(гПа)
dP
(гПа)
Po
(мм)
O2
(г/м3)
Тmin Tmax R s Состояние
почвы
21 14.11.18 180 (Ю) 4000 м    10/10 300 м 
[Sc]
+4 +3 93 +4  1025  -0.5  707  280           
00 15.11.18 090 (В) 4000 м  в посл. час дождь  10/10 300 м 
[Ns]
+4.6 +3.9 95 +4  1024.6  -0.2  707  280           
03 15.11.18 090 (В) 4000 м    10/10 600 м 
[Sc]
+6.7 +5.6 93 +7  1022.6  -1.2  706  277           
09 15.11.18 090 (В) 10 км    10/10 600 м 
[Sc]
+8 +6.2 88 +8  1022.5  -0.3  707  276           
12 15.11.18 090 (В) 10 км    10/10 600 м 
[Sc]
+8.4   1021.9  -0.5  706             
15 15.11.18 050 (СВ) 4000 м    10/10 600 м 
[Sc]
+8.7 +6.4 85 +8    -0.3  706  275           
21 15.11.18 140 (ЮВ) 4000 м    10/10 600 м 
[Sc]
+8.7 +6.8 88 +9  1021.8  -0.1  706  275           
00 16.11.18 050 (СВ) 4000 м    10/10 600 м 
[Sc]
+8.5 +6.5 87 +9  1022  706  275           
03 16.11.18 тихо ()   4000 м    10/10 600 м 
[Sc]
+7.9 +6.1 88 +8  1021.9  -0.3  706  275           
06 16.11.18 090 (В) 10 км    10/10 600 м 
[Sc]
+10.1 +7.1 82 +10  1022.6  1.3  707  273  +7.7         
09 16.11.18 180 (Ю) 10 км    8/8 600 м 
[Sc]
+12.9 +8.5 75 +13  1021.6  -0.2  707  270           
12 16.11.18 180 (Ю) 10 км    8/8 600 м 
[Sc]
+13.5 +9.5 77 +16  1020.7  -0.6  707  269           
15 16.11.18 270 (З) 4000 м    10/10 600 м 
[Sc]
+10.3 +9 92 +11  1022.4  0.7  707  273           
18 16.11.18 270 (З) 4000 м  в посл. час дождь  10/10 600 м 
[Ns]
+9.5 +8.6 94 +10  1023.9  1.2  708  274    +14       
21 16.11.18 180 (Ю) 4000 м    10/10 600 м 
[Sc]
+9.3 +8.2 93 +9  1023.8  -0.2  708  274           
00 17.11.18 270 (З) 0200 м  туман  ?/?  
+9.1 +8.9 99 +10  1023.4  -0.3  708  274           
03 17.11.18 090 (В) 0200 м  туман  ?/?  
+8.5 +8.2 98 +9  1023.9  0.2  708  275           
09 17.11.18 270 (З) 0200 м  слаб. дождь{туман}  ?/?  
+9.4 +9.2 99 +10  1023.8  -0.1  708  274           
12 17.11.18 180 (Ю) 10 км  в посл. час туман{дождь}  10/10 600 м 
[Sc]
+10.2 +9.4 95 +11  1022.3  -1.2  707  273           
15 17.11.18 200 (Ю) 4000 м    10/10 600 м 
[Sc]
+9.5 +8.5 93 +10  1022.9  0.4  707  274           
18 17.11.18 050 (СВ) 4000 м    10/10 600 м 
[Sc]
+8.5 +7.7 95 +9  1023.6  0.3  707  275    +10.8  0.4     
21 17.11.18 050 (СВ) 4000 м    6/6 600 м 
[Sc]
+6.1 +5.4 95 +6  1024.7  0.3  708  278           
00 18.11.18 090 (В) 4000 м    8/8 600 м 
[Sc]
+5.5 +4.6 94 +5  1024.5  -0.3  707  279           
03 18.11.18 050 (СВ) 20000 м    3/3 600 м 
[Sc]
+4.8 +3.1 89 +4  1024.9  0.1  708  280           
09 18.11.18 180 (Ю) 10 км    6/6 600 м 
[Sc]
+10.3 +5 70 +10  1023.9  -0.3  708  274           
Время (UTC), дата Ветер
(°,м/с) 
Видим.   Явления Облачность Т
(°С)
Тd
(°С)
f(%) Тe
(°С)
Pmin
(гПа)
dP
(гПа)
Po
(мм)
O2
(г/м3)
Тmin Tmax R s Состояние
почвы

Для получения пояснительной информации подведите курсор к названию столбца.

ПОГОДА в Кабале - архив

Всё, что Вы хотите узнать о погоде в Кабале - удобно и подробно!

Выберите нужную дату (начиная с 1 января 2015* года) и нажмите кнопку "Найти".
Будут отображены архивные сводки погоды по пункту Кабала, начиная с указанной даты.


Отображать данные в формате CSV (для использования в таблицах Excel)


Внимание! Наш архив погоды предназначен исключительно для личного некоммерческого использования в познавательных целях. Если Вам необходимы официальные справки о состоянии погоды (для производственных, юридических, коммерческих и т.п. целей), обращайтесь в органы Росгидромета.

*Примечание: данная дата относится к архиву по метеостанциям СССР (Россия, СНГ, Балтия).
Архив по метеостанциям Зарубежной Европы и Азии (кроме Китая) хранится 10 дней, по другим регионам земного шара (Китай, Африка, Америка, Австралия, Океания) - 1 день.

Кабала - район местоположения метеостанции


Название, широта, долгота, высота метеостанции:
Кабала 41°ш. 47.9°д. 682 м над ур. моря [Азербайджан]

Дополнительная информация

В oтличие oт бoльшинства пoгoдных сайтoв мы публикуем пoдрoбную метеoинфoрмацию в детальнoм прoфессиoнальнoм фoрмате.

Характеристики температуры и влажнoсти вoздуха измеряются на высoте 2 м в тени вдали oт зданий и деревьев.
Скoрoсть ветра измеряется на высoте 10 м (на урoвне рoста челoвека скoрoсть ветра ниже в 1.5-2 раза). Если метеoстанция нахoдится в гoрoде или в лесу, тo скoрoсть ветра занижена на 2-4 м/с пo сравнению с oткрытым местoм. Скoрoсть ветра над акватoриями крупных рек и oзёр, а также на вершинах хoлмoв на 2-5 м/с выше, чем в oбычных услoвиях.
Атмoсфернoе давление в разных тoчках местнoсти мoжет значительнo oтличаться oт давления на метеoстанции, в зависимoсти oт услoвий рельефа (при пoдъёме на 10 м давление пoнижается примернo на 1 мм рт.ст.).